Flag for Brazil Weather past 2 weeks in Pelotas, Rio Grande do Sul, Brazil

Now
72 °F

Clear.


Feels Like: 65 °F
Forecast: 71 / 90 °F
Wind: 3 mph from East

Location: Pelotas Airport

Current Time: Jan 27, 2015 at 6:32:59 AM

Latest Report: Jan 27, 2015 at 6:00 AM


Visibility: 10 mi

Pressure: 29.83 "Hg

Humidity: 100%

Dew point: 72 °F

Location of PelotasLocation

Historic Weather in Pelotas — Graph

°F

Pelotas temperature yesterday

Maximum temperature yesterday: 90 °F (at 12:00 PM)
Minimum temperature yesterday: 68 °F (at 5:00 AM)
Average temperature yesterday: 78 °F

Past Weeks' High & Low Weather Summary

 TemperatureHumidityPressure
High91 °F (Jan 19, 3:00 PM)100% (Jan 12, 5:00 AM)30.21 "Hg (Jan 12, 5:00 AM)
Low36 °F (Jan 13, 10:00 PM)45% (Jan 21, 12:00 PM)29.74 "Hg (Jan 13, 7:00 PM)
Average76 °F83%29.96 "Hg
* Reported Jan 12 5:00 AM — Jan 27 5:00 AM, Pelotas, Weather by CustomWeather, © 2014

Note: Actual official high and low records may vary slightly from our data, if they occured in-between our weather recording intervals... More about our weather records

Advertising

Pelotas weather history for previous 24 hours

 ConditionsComfort  
Time TempWeatherWind HumidityBarometerVisibility
5:00 AM
Jan 27
73 °FClear.3 mph100%29.83 "Hg10 mi
4:00 AM73 °FClear.5 mph100%29.83 "Hg10 mi
3:00 AM75 °FClear.3 mph100%29.83 "Hg10 mi
2:00 AM75 °FPassing clouds.5 mph100%29.86 "HgN/A
1:00 AM75 °FPassing clouds.5 mph100%29.86 "HgN/A
12:00 AM75 °FPassing clouds.5 mph100%29.86 "HgN/A
11:00 PM
Jan 26
75 °FPassing clouds.5 mph100%29.83 "HgN/A
10:00 PM75 °FPassing clouds.5 mph100%29.83 "HgN/A
9:00 PM77 °FClear.7 mph94%29.83 "Hg10 mi
8:00 PM81 °FScattered clouds.13 mph84%29.83 "HgN/A
7:00 PM81 °FPassing clouds.10 mph84%29.83 "HgN/A
6:00 PM86 °FScattered clouds.13 mph70%29.83 "HgN/A
5:00 PM88 °FScattered clouds.12 mph62%29.83 "HgN/A
4:00 PM88 °FScattered clouds.13 mph62%29.83 "HgN/A
3:00 PM88 °FPartly sunny.12 mph62%29.86 "HgN/A
2:00 PM88 °FPartly sunny.9 mph70%29.86 "HgN/A
1:00 PM88 °FPartly sunny.7 mph55%29.86 "HgN/A
12:00 PM90 °FPartly sunny.9 mph55%29.89 "HgN/A
11:00 AM84 °FPartly sunny.5 mph70%29.89 "HgN/A
10:00 AM81 °FScattered clouds.5 mph84%29.89 "HgN/A
9:00 AM75 °FScattered clouds.3 mph100%29.89 "Hg5 mi
8:00 AM72 °FPassing clouds.2 mph100%29.86 "Hg4 mi
7:00 AM68 °FPassing clouds.2 mph100%29.86 "Hg4 mi
6:00 AM68 °FClear.No wind100%29.83 "Hg4 mi
Weather by CustomWeather, © 2014

See weather overviewHow to use our weather pages